Regional Weather Roundup
Issued by NWS

Home | Current Version | Previous Version | Graphics & Text | Print | Product List | Glossary On
Versions: 1 2 3 4 5 6 7 8 9 10 11 12 13 14 15 16 17 18 19 20 21 22 23 24 25 26 27 28 29 30 31 32 33 34 35 36 37 38 39 40 41 42 43 44 45 46 47 48 49 50
000
ASUS43 KMKX 281700
RWRWI

WISCONSIN REGIONAL WEATHER ROUNDUP
NATIONAL WEATHER SERVICE MILWAUKEE/SULLIVAN WI
1200 PM CDT TUE JUL 28 2015

NOTE: "FAIR" INDICATES FEW OR NO CLOUDS BELOW 12,000 FEET WITH NO
SIGNIFICANT WEATHER AND/OR OBSTRUCTIONS TO VISIBILITY.

WIZ001-002-006>008-014>016-023>028-281800-
NORTHWEST WISCONSIN

CITY           SKY/WX    TMP DP  RH WIND       PRES   REMARKS
SUPERIOR ARPT  CLOUDY    78  70  76 SW16G22   29.75R HX  81
ASHLAND        CLOUDY    78  69  73 S10G20    29.79R HX  80
HAYWARD        CLOUDY    76  68  76 S15G25    29.82R
SIREN          CLOUDY    79  68  70 S14G23    29.81R HX  81
CUMBERLAND     CLOUDY    77  68  73 S14       29.85R
RICE LAKE      CLOUDY    73  71  93 S17G23    29.85R
CHETEK         CLOUDY    75  70  85 SE15G21   29.84R
LADYSMITH      CLOUDY    76  68  77 SE18G31   29.84F
EAU CLAIRE     CLOUDY    76  68  76 S14       29.82S
MENOMONIE      CLOUDY    75  70  83 S13       29.84S
NEW RICHMOND   CLOUDY    76  69  79 S13G25    29.84S
OSCEOLA        CLOUDY    78  69  71 S18       29.85R HX  81
$$

WIZ003>005-009-010-017-018-281800-
NORTH CENTRAL WISCONSIN

CITY           SKY/WX    TMP DP  RH WIND       PRES   REMARKS
MANITOWISH WTR CLOUDY    73  65  77 S15G22    29.91F
ARBOR VITAE    CLOUDY    72  64  74 S12G17    29.94F
WOODRUFF       CLOUDY    72  64  74 S12G17    29.94F
RHINELANDER    CLOUDY    75  63  66 S13G20    29.96F
EAGLE RIVER    CLOUDY    74  61  63 S8        29.97F
LAND O LAKES   CLOUDY    75  63  64 S9G17     29.97F
PHILLIPS       CLOUDY    73  66  78 S16G24    29.88F
TOMAHAWK       CLOUDY    73  64  73 S5        29.96F
MEDFORD        CLOUDY    73  67  83 S15       29.93F
MERRILL        NOT AVBL
$$

WIZ029-030-035-036-043>047-281800-
CENTRAL WISCONSIN

CITY           SKY/WX    TMP DP  RH WIND       PRES   REMARKS
WAUSAU         CLOUDY    78  64  61 S13G22    29.94F HX  80
MOSINEE        PTSUNNY   75  66  73 S10       29.98F
MARSHFIELD     LGT RAIN  73  66  78 S14       29.94F
STEVENS POINT  CLOUDY    76  64  65 S9        30.00F
WAUPACA        CLOUDY    84  65  52 S10       30.00F HX  85
WAUTOMA        NOT AVBL
WISC RAPIDS    LGT RAIN  76  66  71 S6        29.99F
CAMP DOUGLAS   NOT AVBL
$$

WIZ011>013-019>022-031-037>040-048>050-281800-
NORTHEAST WISCONSIN

CITY           SKY/WX    TMP DP  RH WIND       PRES   REMARKS
ANTIGO         CLOUDY    76  65  68 S13       30.02F
SHAWANO        CLOUDY    83  63  50 S7        30.00F HX  84
OCONTO         PTSUNNY   83  67  59 S8        29.99F HX  85
STURGEON BAY   CLOUDY    84  64  51 S13       30.03F HX  86
GREEN BAY      PTSUNNY   83  62  49 S10       30.00F HX  84
MANITOWOC      NOT AVBL
APPLETON       PTSUNNY   82  61  47 S10       30.01F HX  83
CLINTONVILLE   CLOUDY    81  61  50 S12       30.00F HX  81
OSHKOSH        PTSUNNY   83  64  52 S9        29.99F HX  84
$$

WIZ032>034-041-042-053>061-281800-
SOUTHWEST WISCONSIN

CITY           SKY/WX    TMP DP  RH WIND       PRES   REMARKS
LA CROSSE      LGT RAIN  71  70  96 E17G25    29.85F FOG
SPARTA         RAIN      70  68  93 CALM      29.99S
VIROQUA        CLOUDY    70  70 100 E5        29.99S
BOSCOBEL       CLOUDY    78  72  81 SE3       29.95F HX  80
PRAIRIE DU CHI RAIN      74  70  87 SE3G20    29.93F
PLATTEVILLE    CLOUDY    78  74  87 S12       30.00R HX  81
$$

WIZ056-057-062-063-064-067-068-281800-
SOUTH CENTRAL WISCONSIN

CITY           SKY/WX    TMP DP  RH WIND       PRES   REMARKS
REEDSBURG      CLOUDY    78  70  74 S5        29.97F HX  81
BARABOO/DELLS  CLOUDY    82  65  58 S12       29.98F HX  83
LONE ROCK      NOT AVBL
MINERAL POINT  CLOUDY    79  72  78 SE6       30.00S HX  82
MADISON        PTSUNNY   83  68  60 S13       29.97F HX  86
MIDDLETON      PTSUNNY   83  68  61 S7        29.98F HX  86
WATERTOWN      MOSUNNY   84  67  57 S7        30.00F HX  87
MONROE         PTSUNNY   81  70  69 S10       30.00F HX  84
JANESVILLE     MOSUNNY   86  66  51 S6        29.99S HX  88
$$

WIZ051-052-058>065-066-070>072-281800-
SOUTHEAST WISCONSIN

CITY           SKY/WX    TMP DP  RH WIND       PRES   REMARKS
MILWAUKEE      PTSUNNY   86  64  47 SE12      30.00F HX  87
WAUKESHA       SUNNY     82  63  51 SE7       30.01F HX  83
MILWAUKEE/TIMM SUNNY     84  57  39 SE5       30.01F HX  83
RACINE         PTSUNNY   83  68  60 SE9       30.02F HX  86
BURLINGTON     MOSUNNY   83  66  55 S3        29.99F HX  85
KENOSHA        PTSUNNY   85  66  53 SE10      30.01S HX  87
FOND DU LAC    PTSUNNY   84  65  52 S8        29.99F HX  86
SHEBOYGAN      PTSUNNY   85  62  46 S12       30.01F HX  85
WEST BEND      MOSUNNY   82  61  47 CALM      30.02F HX  83
JUNEAU         PTSUNNY   82  65  57 SE8       30.02F HX  83
$$

LSZ147-162-281800-
LAKE SUPERIOR

STATION/POSITION TIME  TEMP    WIND        PRES    WAVE
                       AIR SEA DIR/SP/G            HT/PER
                 (UTC) (F)     (DEG/KT/KT) (MB)    (FT/S)
W MID LAKE BUOY  1550   66 62  140/ 12/ 14 1010.7F   1/ 3
DEVILS ISLAND    1600   75     150/ 12/ 17 1008.4F
SAXON HARBOR     1600   79                 1008.5F
$$

LMZ867-665-643>646-281800-
LAKE MICHIGAN

STATION/POSITION TIME  TEMP    WIND        PRES    WAVE
                       AIR SEA DIR/SP/G            HT/PER
                 (UTC) (F)     (DEG/KT/KT) (MB)    (FT/S)
CHAMBERS ISLAND  1600   80     200/  6/  9 1015.9S
S GREEN BAY BUOY 1600   78 76  220/  6/  8 1017.8R
N MID LAKE BUOY  1550   72 71  210/  6/  6 1016.1R   0
NORTHPORT PIER   1600   75     140/  9/ 11 1015.9F
SISTER BAY       1614   83     190/ 13/ 15   N/A
ALGOMA LAKESHORE 1612          210/  5/  6   N/A
KEWAUNEE LAKESHO 1600   69     170/  9/ 10 1016.1R
SHEBOYGAN LAKESH 1600   72     160/ 11/ 12 1016.8R
PORT WASHINGTON  1640   77     100/  3/  4 1016.9F
ATWATER BUOY     1600   71     130/  6/  8 1018.0R
MILWAUKEE LAKESH 1600   71     120/ 11/ 11   N/A
KENOSHA   LAKESH 1600   76     130/  5/  6 1015.9R
$$

TC  - TEMPERATURE IN CELSIUS
VSB - VISIBILITY IN STATUTE MILES
WCI - WIND CHILL INDEX
HX  - HEAT INDEX




USA.gov is the U.S. government's official web portal to all federal, state and local government web resources and services.